NEE-02 KRYSAOR

Last updated on Tue Sep 15 2026 00:03:55 GMT+0000 (Coordinated Universal Time)

1 39441U 13066AB 26256.77674065 .00001265 00000+0 14231-3 0 9997 2 39441 97.8935 195.3964 0066598 138.0762 222.5580 14.86903520689366
UTC large
Height (km)
Speed (km/s)
/
Latitude / Longitude
Inclination (degrees)
Orbital Period (minutes)
Azimuth
Elevation
Range (km)
Doppler Factor

Next 0 passes for location: London (51.5072 / 0.1276)

No passes found over London.
NEE-02 KRYSAOR